Weather History for Barking Sands, HI

Change the Weather History Date:

Saturday, January 4, 2014

  Actual Average Record
Temperature  
Mean Temperature 68 °F -  
Max Temperature 75 °F 81 °F 84 °F (1975)
Min Temperature 60 °F 62 °F 59 °F (1950)
Cooling Degree Days 2    
Growing Degree Days 18 (Base 50)    
Moisture  
Dew Point 54 °F    
Average Humidity 60    
Maximum Humidity 75    
Minimum Humidity 40    
Precipitation  
Precipitation 0.00 in - - ()
Sea Level Pressure  
Sea Level Pressure 29.97 in    
Wind  
Wind Speed 7 mph (NE)    
Max Wind Speed 15 mph    
Max Gust Speed 20 mph    
Visibility 10 miles    
Events      
Averages and records for this station are not official NWS values.
T = Trace of Precipitation, MM = Missing Value Source: NWS Daily Summary

Daily Weather History Graph

Daily Weather History Graph

Search for Another Location

Airport:

Trip Planner

Search our weather history database for the weather conditions in past years. The results will help you decide how hot, cold, wet, or windy it might be!

Date:

Astronomy

Jan. 04, 2014 Rise Set
Actual Time 7:19 AM HST 6:09 PM HST
Civil Twilight 6:54 AM HST 6:33 PM HST
Nautical Twilight 6:27 AM HST 7:01 PM HST
Astronomical Twilight 5:59 AM HST 7:28 PM HST
Moon 10:02 AM HST (1/4) 10:08 PM HST (1/4)
Length of Visible Light 11h 38m
Length of Day
10h 50m
Waxing Crescent, 17% of the Moon is Illuminated
Jan 4
Waxing Crescent
Jan 7
First Quarter
Jan 15
Full
Jan 23
Last Quarter
Jan 30
New

Hourly Weather History & Observations

Time (HST) Temp. Dew Point Humidity Pressure Visibility Wind Dir Wind Speed Gust Speed Precip Events Conditions
12:56 AM 62.1 °F 53.1 °F 72% 29.94 in 10.0 mi ENE 4.6 mph - N/A   Partly Cloudy
1:56 AM 62.1 °F 53.1 °F 72% 29.94 in 10.0 mi East 6.9 mph - N/A   Clear
2:56 AM 60.1 °F 52.0 °F 75% 29.92 in 10.0 mi East 4.6 mph - N/A   Clear
3:56 AM 61.0 °F 52.0 °F 72% 29.93 in 10.0 mi East 6.9 mph - N/A   Scattered Clouds
4:56 AM 62.1 °F 52.0 °F 70% 29.94 in 10.0 mi ENE 4.6 mph - N/A   Partly Cloudy
5:56 AM 63.0 °F 53.1 °F 70% 29.95 in 10.0 mi East 4.6 mph - N/A   Mostly Cloudy
6:56 AM 62.1 °F 54.0 °F 75% 29.97 in 10.0 mi East 5.8 mph - N/A   Clear
7:56 AM 62.1 °F 53.1 °F 72% 29.98 in 10.0 mi ENE 4.6 mph - N/A   Clear
8:56 AM 69.1 °F 55.0 °F 61% 30.00 in 10.0 mi Calm Calm - N/A   Clear
9:56 AM 73.0 °F 52.0 °F 48% 30.01 in 10.0 mi NNE 10.4 mph - N/A   Partly Cloudy
10:56 AM 75.0 °F 51.1 °F 43% 30.00 in 10.0 mi North 11.5 mph 17.3 mph N/A   Clear
11:56 AM 75.9 °F 50.0 °F 40% 29.96 in 10.0 mi NNW 15.0 mph - N/A   Clear
12:56 PM 75.0 °F 53.1 °F 46% 29.94 in 10.0 mi SSE 5.8 mph - N/A   Partly Cloudy
1:56 PM 75.9 °F 53.1 °F 45% 29.92 in 10.0 mi SSW 9.2 mph - N/A   Mostly Cloudy
2:56 PM 75.0 °F 53.1 °F 46% 29.91 in 10.0 mi SW 9.2 mph - N/A   Scattered Clouds
3:56 PM 75.9 °F 53.1 °F 45% 29.92 in 10.0 mi WNW 4.6 mph - N/A   Partly Cloudy
4:38 PM 75.2 °F 55.4 °F 50% 29.92 in 10.0 mi North 15.0 mph 19.6 mph N/A   Mostly Cloudy
4:56 PM 75.0 °F 55.0 °F 50% 29.94 in 10.0 mi North 13.8 mph - N/A   Mostly Cloudy
5:56 PM 72.0 °F 57.0 °F 59% 29.97 in 10.0 mi North 15.0 mph - N/A   Clear
6:56 PM 71.1 °F 55.9 °F 59% 29.99 in 10.0 mi NNE 15.0 mph - N/A   Overcast
7:56 PM 70.0 °F 57.0 °F 63% 30.01 in 10.0 mi NNE 9.2 mph - N/A   Overcast
8:56 PM 68.0 °F 57.0 °F 68% 30.01 in 10.0 mi NNE 6.9 mph - N/A   Scattered Clouds
9:56 PM 66.9 °F 57.0 °F 70% 30.03 in 10.0 mi Calm Calm - N/A   Mostly Cloudy
10:56 PM 69.1 °F 57.0 °F 65% 30.02 in 10.0 mi NNE 5.8 mph - 0.00 in   Mostly Cloudy
11:56 PM 64.9 °F 57.0 °F 75% 30.01 in 10.0 mi ENE 5.8 mph - 0.00 in   Mostly Cloudy